SCP
0 0 0 0 0 0 0 0 0 0 0 0 0 0 0 0 0 0 0 0 0 0 0 0 0 0 0 -0 -0 0 0 -0 -0 -0 0 -0 -0 0 0 0 0 0 0 0 -0 -0 -0
0 0 0 0 0 0 0 0 0 0 0 0 0 0 0 0 0 0 0 0 0 0 0 0 0 0 0 0 0 -0 -0 -0 -0 -0 -0 -0 0 0 0 0 -0 -0 -0 0 0 0 0
0 0 0 0 0 0 0 0 0 0 0 0 0 0 0 0 0 0 0 0 0 0 0 0 0 0 0 -0 0 0 -0 -0 0 -0 -0 -0 0 -0 0 0 0 0 -0 0 0 0 0
0 0 0 0 0 0 0 0 0 0 0 0 0 0 0 0 0 0 0 0 0 0 0 0 0 0 -0 0 0 0 0 0 0 -0 -0 -0 0 0 0 0 0 -0 0 0 0 0 0
0 0 0 0 0 0 0 0 0 0 0 0 0 0 0 0 0 0 0 0 0 0 0 0 0 0 0 0 0 -0 0 0 0 0 0 -0 0 0 -0 0 0 0 0 0 -0 0 0
0 0 0 0 0 0 0 0 0 0 0 0 0 0 0 0 0 0 -0 0 0 0 0 0 0 0 0 0 0 0 0 0 0 0 0 0 0 0 0 0 -0 -0 -0 -0 0 0 0
0 0 0 0 0 0 0 0 0 0 0 0 0 0 0 0 0 0 0 0 0 0 0 0 0 0 0 0 0 0 -0 0 0 0 0 0 0 0 -0 -0 -0 -0 -0 -0 0 -0 0
0 0 0 0 0 0 0 0 0 0 0 0 0 0 0 0 0 0 0 0 0 0 0 0 0 0 0 0 0 0 0 0 0 0 0 0 0 0 -0 -0 -0 -0 -0 -0 -0 0 0
0 0 0 0 0 0 0 0 0 0 0 0 0 0 0 0 -0 0 0 0 0 0 0 0 0 0 0 0 0 0 0 0 0 0 0 0 -0 0 -0 -0 -0 0 0 0 0 0 0
0 0 0 0 0 0 0 0 0 0 0 0 0 0 0 -0 0 0 0 0 0 0 0 0 0 0 0 0 0 0 0 0 0 0 0 0 0 0 -0 0 -0 0 0 0 -0 0 -0
0 0 0 0 0 0 0 0 0 0 0 0 0 0 0 0 0 0 0 0 0 0 0 0 0 0 0 0 0 0 0 -0 -0 -0 0 0 0 0 0 -0 0 0 0 0 0 0 0
0 0 0 0 0 0 0 0 0 0 0 0 0 0 0 -0 0 0 0 0 0 0 0 0 0 0 0 0 -0 0 0 -0 0 0 0 0 0 0 0 0 0 0 0 0 0 0 -0
0 0 0 0 0 0 0 0 0 0 0 -0 -0 0 0 0 0 0 0 0 0 0 0 0 0 0 0 0 -0 0 -0 0 0 0 0 0 0 0 -0 0 0 0 0 -0 0 0 0
0 0 0 0 0 0 0 0 0 0 0 0 -0 -0 0 0 0 0 0 0 0 -0 -0 0 0 0 0 0 0 0 0 0 0 0 0 0 0 0 0 -0 0 0 0 0 -0 0 0
0 0 0 0 0 0 0 0 0 0 0 0 -0 0 0 0 0 0 0 0 0 0 0 0 0 0 0 -0 0 0 0 0 0 -0 -0 -0 0 0 0 0 -0 0 0 0 0 0 0
0 0 0 0 0 0 0 0 0 0 0 0 0 0 0 0 0 0 0 0 -0 0 0 0 -0 0 0 0 -0 0 0 0 0 0 0 -0 -0 0 0 0 0 0 0 0 0 0 0
0 0 0 0 0 0 0 0 0 0 -0 -0 0 0 0 0 0 0 0 0 0 0 0 0 0 0 0 0 0 0 0 0 0 0 -0 -0 -0 -0 0 0 0 0 -0 -0 0 0 0
0 0 0 0 0 0 0 0 0 0 -0 0 0 0 0 0 0 0 0 0 0 0 0 0 0 0 0 0 0 0 0 0 -0 -0 0 -0 0 0 0 0 0 -0 0 0 0 -0 0
0 0 0 0 0 0 0 0 0 0 0 0 0 0 0 0 0 0 0 0 0 0 0 0 0 0 0 0 0 0 0 0 0 -0 -0 0 0 0 0 0 -0 -0 -0 0 0 0 0
0 0 0 0 0 -0 -0 0 0 0 0 0 0 0 0 0 0 0 0 0 0 0 0 0 0 0 0 0 0 0 0 0 0 0 0 0 0 -0 -0 0 0 0 0 0 0 0 -0
0 0 0 0 -0 -0 -0 0 0 0 0 0 0 0 0 0 0 0 0 0 0 0 0 0 0 0 0 0 0 0 0 0 0 0 0 0 0 0 0 0 0 0 0 0 0 0 0
0 0 0 -0 -0 -0 -0 -0 0 0 0 0 0 0 0 0 -0 0 0 0 0 0 0 0 0 0 0 0 0 0 0 0 0 0 0 0 0 0 0 0 0 0 0 0 0 0 0
0 0 0 -0 -0 -0 -0 -0 0 0 0 0 0 0 0 0 0 0 0 0 0 0 0 -0 -0 -0 0 0 0 0 0 0 0 0 0 0 0 0 0 0 0 0 0 0 0 -0 0
0 0 0 -0 -0 -0 -0 -0 -0 0 0 0 0 0 0 -0 0 0 0 0 0 0 0 -0 -0 0 0 0 0 0 0 0 0 0 0 0 0 -0 0 0 0 0 0 0 0 -0 -0
0 0 0 0 -0 -0 -0 -0 -0 0 0 0 0 0 0 0 0 0 -0 0 0 0 0 0 0 0 -0 -0 0 0 0 0 0 0 0 0 0 -0 0 0 0 0 0 0 0 0 0
0 0 0 0 0 -0 -0 -0 -0 0 0 0 0 0 0 0 0 0 0 -0 -0 0 0 0 0 -0 -0 -0 0 0 0 0 0 0 0 0 0 0 0 0 0 0 0 0 0 0 0
0 0 0 0 0 0 0 -0 -0 0 0 0 0 0 0 0 0 0 -0 0 0 0 0 0 0 0 -0 0 0 0 0 0 0 0 0 0 0 0 0 0 0 0 0 0 0 0 0
0 0 0 0 0 0 0 0 0 0 0 0 0 0 0 0 0 0 0 0 0 0 0 0 -0 0 1 0 0 -0 0 -0 0 0 0 0 0 0 1 0 0 0 0 0 0 0 0
0 0 0 0 0 0 0 0 0 0 0 0 0 0 0 0 0 0 0 0 0 0 -0 -0 0 0 1 1 -0 -0 -0 0 0 0 0 0 0 1 1 0 0 0 0 0 0 0 0
Wind_Speed_500mb
30 30 29 29 27 27 26 26 26 26 27 27 26 25 25 26 25 23 21 18 15 13 15 14 12 13 11 9 21 7 9 18 26 27 33 36 55 48 14 17 30 17 22 25 55 54 45
29 29 30 30 30 29 27 27 27 26 26 26 26 25 26 27 26 25 22 18 14 11 14 14 12 12 11 11 2 10 7 17 26 25 31 35 51 41 28 15 13 16 36 32 36 47 53
29 29 29 30 30 31 31 31 29 29 29 28 27 26 25 26 26 26 23 19 14 11 12 14 13 14 21 40 15 11 12 17 18 22 38 38 48 27 37 17 20 19 17 20 25 28 21
27 29 29 29 31 31 32 33 32 31 30 30 30 28 27 26 25 24 23 19 13 10 10 12 13 15 21 35 24 17 12 16 23 27 38 43 33 31 35 45 10 9 11 10 25 24 23
26 27 29 30 31 32 33 33 34 34 34 32 31 29 29 29 26 24 21 16 12 9 8 11 9 15 25 11 35 38 22 27 23 25 27 30 26 27 46 17 12 10 13 12 17 24 21
27 28 29 31 31 32 33 34 34 35 34 34 32 31 30 29 28 24 18 15 12 10 9 11 15 18 29 37 29 29 30 28 33 34 39 40 40 11 15 11 13 4 4 11 14 18 25
32 31 31 32 32 33 33 34 35 36 36 35 33 32 30 30 28 26 16 15 9 3 20 24 20 27 38 21 24 31 31 32 36 43 16 42 9 19 28 16 10 12 17 25 19 31 30
30 32 34 34 33 34 35 34 35 36 37 37 36 33 31 29 26 24 21 13 3 28 24 37 51 62 63 30 26 38 35 40 34 17 19 18 22 29 30 25 22 28 27 11 18 18 10
28 30 31 34 36 36 36 35 36 37 38 39 38 35 32 28 24 15 14 21 20 21 17 33 53 51 54 29 19 46 43 43 14 19 18 22 26 31 34 20 14 18 3 2 6 8 7
28 29 32 36 35 38 37 35 36 38 39 40 39 36 33 28 14 13 18 21 20 15 8 14 26 51 40 28 13 34 40 40 16 22 26 17 39 36 29 13 14 18 4 3 12 14 12
25 27 29 33 36 39 40 35 36 38 39 40 39 38 27 30 22 19 17 5 13 15 8 11 30 24 45 39 20 38 49 52 27 24 16 25 26 27 31 29 19 5 12 14 13 8 6
30 30 32 33 37 39 42 39 37 38 39 40 39 39 32 28 24 6 10 9 13 3 14 5 22 22 21 45 50 16 47 60 50 27 23 20 48 24 29 30 17 6 2 8 9 3 6
33 34 32 34 36 41 44 44 41 42 41 43 40 36 39 30 17 4 7 15 3 9 20 18 24 30 26 19 32 29 26 30 25 13 20 21 27 25 30 14 6 10 6 6 8 6 12
32 30 29 33 38 41 45 47 46 46 45 46 42 37 35 30 20 15 2 3 10 24 27 10 12 26 25 21 23 25 21 22 21 23 12 15 19 19 21 20 14 15 16 11 11 8 7
31 25 25 34 40 41 46 49 50 47 42 47 42 31 30 8 26 25 7 9 12 14 13 21 21 24 22 27 18 24 22 25 27 25 20 14 19 21 24 11 13 8 4 18 8 13 1
26 21 24 30 39 49 49 50 53 50 37 41 46 40 33 14 21 27 9 16 19 29 42 45 40 15 17 28 28 21 20 27 21 23 26 26 8 21 24 17 10 13 9 6 8 1 9
21 21 26 32 41 45 49 48 52 45 31 32 31 16 11 36 27 18 12 13 21 53 54 41 36 16 10 22 22 20 25 17 28 31 27 22 9 37 15 11 15 6 11 10 3 7 9
24 26 32 37 43 46 48 43 40 38 28 20 12 7 29 26 15 14 18 14 27 50 66 50 21 17 25 15 21 30 24 26 50 41 25 27 9 13 25 21 26 21 19 16 10 17 2
31 29 33 39 39 38 33 32 31 29 29 30 11 21 24 33 9 16 22 35 45 40 42 42 13 17 28 18 11 21 24 29 38 38 21 19 9 13 19 18 24 19 14 10 10 10 6
33 32 32 31 29 29 28 28 24 22 25 23 10 7 23 38 38 26 25 25 27 45 39 45 29 16 17 23 16 13 23 13 24 25 36 25 9 7 8 8 11 9 15 15 16 9 3
42 34 29 28 26 28 28 27 23 19 20 19 7 8 14 6 20 26 30 27 36 32 33 44 18 15 19 21 26 20 11 14 9 15 4 6 6 5 22 19 10 14 12 20 16 9 9
40 43 38 23 23 25 28 28 31 20 17 15 10 15 23 39 46 34 28 29 35 41 28 26 18 22 28 25 26 28 18 12 13 9 15 4 4 7 7 15 27 31 7 6 22 24 20
35 39 39 33 19 21 23 27 28 20 11 6 18 22 20 23 18 22 14 28 35 39 52 44 35 32 36 32 50 56 51 22 18 19 16 13 11 8 6 13 15 9 18 10 25 29 40
32 36 38 40 20 21 23 26 31 27 21 16 15 22 15 14 20 28 43 56 45 51 38 45 58 22 38 34 56 59 59 41 32 16 23 15 10 5 7 4 9 12 18 34 25 29 20
28 31 35 39 37 27 31 31 31 32 28 23 10 8 12 14 33 33 48 35 59 73 35 25 29 24 48 39 10 18 19 12 16 22 19 19 11 5 9 6 22 26 18 9 14 21 34
29 29 32 35 38 37 35 30 32 32 29 25 15 5 14 18 13 38 29 27 10 23 24 21 32 32 35 6 9 10 9 11 12 17 20 18 14 11 4 27 12 10 13 38 27 10 36
31 30 31 32 36 39 37 33 28 28 26 24 2 7 7 21 45 27 9 9 9 21 11 15 25 25 22 5 15 9 11 10 12 21 13 16 8 16 7 9 6 11 4 22 17 10 35
32 32 32 32 33 37 38 37 30 28 26 21 5 4 17 28 58 62 34 21 15 21 6 14 11 16 19 12 2 4 7 7 9 18 19 14 10 6 10 9 4 8 7 14 18 31 38
32 33 33 34 33 33 37 41 34 30 23 21 15 13 14 24 38 41 41 48 53 62 29 4 6 10 20 7 7 6 7 10 14 7 10 10 9 12 5 11 20 28 30 23 31 37 53
Wind_Direction_500mb
21 19 16 14 13 10 8 6 1 360 359 357 353 348 344 341 339 336 331 322 309 291 289 292 296 291 283 273 246 268 271 240 245 247 263 282 285 299 16 122 121 147 119 126 128 131 137
19 17 14 12 9 7 5 2 358 354 352 352 352 346 342 339 336 335 331 322 308 286 279 287 294 289 279 256 172 278 284 223 230 244 264 277 284 327 314 333 134 130 146 159 131 144 123
12 10 9 7 7 5 3 0 356 352 348 346 347 346 341 337 333 331 327 320 308 283 271 279 290 286 260 227 168 157 298 239 232 236 262 287 309 328 321 305 129 178 182 154 156 132 126
4 6 4 1 1 1 1 358 355 350 347 343 342 342 337 334 331 328 323 315 306 280 266 275 285 298 261 233 250 232 206 246 233 250 263 283 313 315 304 297 163 242 138 172 132 120 166
353 355 357 355 353 354 356 356 354 350 346 342 339 338 335 331 329 326 318 309 300 276 257 262 286 300 269 249 235 224 220 240 238 244 255 271 288 292 294 301 318 254 195 197 169 155 146
346 343 343 347 351 348 349 350 350 348 346 341 336 334 331 329 326 323 315 300 288 271 247 252 230 296 252 228 227 236 219 222 236 234 235 248 262 250 272 263 245 223 315 258 218 173 160
339 339 338 338 339 344 343 345 346 346 343 341 336 331 326 326 324 320 312 293 338 234 221 217 227 226 290 232 211 224 209 216 236 256 218 240 230 237 257 257 285 238 187 225 239 174 163
330 333 335 337 334 334 337 339 341 342 341 340 337 330 323 322 320 314 304 265 257 333 293 276 258 254 268 273 257 209 200 208 223 242 216 250 239 248 262 273 188 235 217 252 166 154 151
320 324 328 330 330 331 329 331 334 337 337 337 336 330 323 320 318 312 302 285 301 334 296 281 242 244 243 255 243 203 206 206 204 239 243 223 244 242 249 258 253 269 223 156 185 145 257
319 321 323 326 323 328 331 327 329 331 333 333 332 330 328 321 310 303 308 341 330 313 299 256 197 230 233 232 277 216 210 226 229 217 243 234 243 257 261 234 248 252 106 35 223 142 211
311 313 314 322 324 327 331 328 326 326 328 328 328 326 328 318 295 274 333 358 325 283 288 189 176 191 191 203 208 222 222 215 227 237 188 247 246 242 259 252 245 199 45 262 286 226 351
308 311 313 317 320 324 327 325 321 320 322 321 321 320 314 307 286 309 266 326 315 290 250 160 135 147 169 207 236 242 213 216 230 246 259 234 246 240 242 262 228 238 70 286 308 20 341
298 302 307 311 317 323 326 325 318 315 317 315 313 312 300 282 265 293 274 280 247 237 309 131 165 170 193 188 225 232 213 196 209 213 254 271 251 260 256 227 255 62 28 315 334 348 227
305 296 305 309 314 318 322 323 320 315 315 313 310 308 290 270 238 202 322 272 249 256 243 298 196 163 192 197 221 238 202 199 203 234 215 239 273 245 264 226 190 178 188 176 234 201 229
311 295 302 298 310 316 319 320 320 315 317 313 313 310 291 256 208 188 231 230 222 233 305 317 305 173 188 220 194 217 228 202 201 215 226 213 249 264 240 193 211 240 283 229 274 310 49
331 313 292 300 301 311 315 318 318 317 319 317 319 316 272 195 178 172 221 240 253 273 301 308 302 173 178 206 212 193 212 196 213 221 228 256 309 240 256 197 239 167 230 320 321 243 62
331 319 304 302 307 312 316 322 321 320 322 314 325 318 116 167 193 194 227 243 267 267 274 278 298 338 266 189 214 218 222 189 200 223 218 242 197 276 247 181 181 221 248 255 199 174 146
301 298 297 296 301 307 316 320 324 326 325 316 301 261 176 179 176 210 236 244 259 279 285 287 278 307 303 306 211 216 225 207 201 206 213 216 203 240 238 190 210 207 206 194 140 290 40
331 324 310 309 314 315 324 326 330 333 336 346 313 278 192 187 224 236 244 248 260 271 275 283 267 268 289 300 334 205 223 227 216 194 209 204 245 265 293 243 235 212 209 232 122 82 28
334 327 326 328 330 328 335 332 335 329 324 338 307 271 198 205 240 266 273 273 258 255 270 279 288 282 322 310 294 286 210 238 232 179 206 179 219 162 224 109 8 326 185 112 116 92 141
3 348 340 339 347 344 347 346 337 324 317 330 236 274 356 256 227 238 262 280 282 277 257 271 296 300 295 298 309 302 220 221 201 157 20 122 181 135 86 85 68 327 341 107 104 147 105
356 4 354 345 356 356 354 349 343 325 318 301 287 346 327 293 279 279 238 246 265 280 263 255 240 261 265 268 268 282 296 196 210 154 171 149 228 135 118 131 112 256 271 238 125 130 114
342 353 357 351 342 347 347 342 341 334 345 320 318 311 334 284 298 294 228 232 247 263 273 228 236 224 243 250 254 268 276 222 222 159 172 175 159 157 221 192 207 221 229 205 117 138 145
343 342 349 356 327 318 319 323 330 341 346 323 321 327 293 295 316 318 338 345 331 296 260 275 228 207 240 294 282 259 273 262 222 179 163 174 192 177 195 77 181 318 16 99 92 137 164
337 342 338 346 350 325 307 311 314 325 326 307 312 319 303 302 322 334 351 336 335 340 261 268 292 299 310 315 278 250 263 261 230 170 185 170 179 227 114 290 89 327 358 35 98 109 143
335 332 336 337 345 345 340 313 311 318 317 302 300 207 274 297 247 333 333 343 339 339 340 2 342 309 301 275 271 231 245 223 223 161 184 186 184 147 358 161 169 162 316 72 101 80 126
325 330 331 336 335 337 343 338 320 318 316 310 325 198 294 288 277 284 279 276 311 317 306 309 335 320 282 276 281 255 256 252 181 164 179 195 222 199 181 87 100 134 288 74 81 194 129
318 321 323 325 330 331 333 339 326 317 315 310 199 149 304 287 280 273 255 271 284 302 297 298 328 9 297 215 231 338 342 304 213 172 176 169 140 177 100 97 176 181 44 106 184 138 119
319 316 315 317 321 324 326 329 332 327 314 300 260 207 279 262 262 276 270 256 238 236 264 319 10 334 265 326 46 49 22 4 11 195 341 152 168 142 112 175 129 162 157 172 161 121 130
Wind_Speed_850mb
30 30 29 29 27 27 26 26 26 26 27 27 26 25 25 26 25 23 21 18 15 13 15 14 12 13 11 9 21 7 9 18 26 27 33 36 55 48 14 17 30 17 22 25 55 54 45
29 29 30 30 30 29 27 27 27 26 26 26 26 25 26 27 26 25 22 18 14 11 14 14 12 12 11 11 2 10 7 17 26 25 31 35 51 41 28 15 13 16 36 32 36 47 53
29 29 29 30 30 31 31 31 29 29 29 28 27 26 25 26 26 26 23 19 14 11 12 14 13 14 21 40 15 11 12 17 18 22 38 38 48 27 37 17 20 19 17 20 25 28 21
27 29 29 29 31 31 32 33 32 31 30 30 30 28 27 26 25 24 23 19 13 10 10 12 13 15 21 35 24 17 12 16 23 27 38 43 33 31 35 45 10 9 11 10 25 24 23
26 27 29 30 31 32 33 33 34 34 34 32 31 29 29 29 26 24 21 16 12 9 8 11 9 15 25 11 35 38 22 27 23 25 27 30 26 27 46 17 12 10 13 12 17 24 21
27 28 29 31 31 32 33 34 34 35 34 34 32 31 30 29 28 24 18 15 12 10 9 11 15 18 29 37 29 29 30 28 33 34 39 40 40 11 15 11 13 4 4 11 14 18 25
32 31 31 32 32 33 33 34 35 36 36 35 33 32 30 30 28 26 16 15 9 3 20 24 20 27 38 21 24 31 31 32 36 43 16 42 9 19 28 16 10 12 17 25 19 31 30
30 32 34 34 33 34 35 34 35 36 37 37 36 33 31 29 26 24 21 13 3 28 24 37 51 62 63 30 26 38 35 40 34 17 19 18 22 29 30 25 22 28 27 11 18 18 10
28 30 31 34 36 36 36 35 36 37 38 39 38 35 32 28 24 15 14 21 20 21 17 33 53 51 54 29 19 46 43 43 14 19 18 22 26 31 34 20 14 18 3 2 6 8 7
28 29 32 36 35 38 37 35 36 38 39 40 39 36 33 28 14 13 18 21 20 15 8 14 26 51 40 28 13 34 40 40 16 22 26 17 39 36 29 13 14 18 4 3 12 14 12
25 27 29 33 36 39 40 35 36 38 39 40 39 38 27 30 22 19 17 5 13 15 8 11 30 24 45 39 20 38 49 52 27 24 16 25 26 27 31 29 19 5 12 14 13 8 6
30 30 32 33 37 39 42 39 37 38 39 40 39 39 32 28 24 6 10 9 13 3 14 5 22 22 21 45 50 16 47 60 50 27 23 20 48 24 29 30 17 6 2 8 9 3 6
33 34 32 34 36 41 44 44 41 42 41 43 40 36 39 30 17 4 7 15 3 9 20 18 24 30 26 19 32 29 26 30 25 13 20 21 27 25 30 14 6 10 6 6 8 6 12
32 30 29 33 38 41 45 47 46 46 45 46 42 37 35 30 20 15 2 3 10 24 27 10 12 26 25 21 23 25 21 22 21 23 12 15 19 19 21 20 14 15 16 11 11 8 7
31 25 25 34 40 41 46 49 50 47 42 47 42 31 30 8 26 25 7 9 12 14 13 21 21 24 22 27 18 24 22 25 27 25 20 14 19 21 24 11 13 8 4 18 8 13 1
26 21 24 30 39 49 49 50 53 50 37 41 46 40 33 14 21 27 9 16 19 29 42 45 40 15 17 28 28 21 20 27 21 23 26 26 8 21 24 17 10 13 9 6 8 1 9
21 21 26 32 41 45 49 48 52 45 31 32 31 16 11 36 27 18 12 13 21 53 54 41 36 16 10 22 22 20 25 17 28 31 27 22 9 37 15 11 15 6 11 10 3 7 9
24 26 32 37 43 46 48 43 40 38 28 20 12 7 29 26 15 14 18 14 27 50 66 50 21 17 25 15 21 30 24 26 50 41 25 27 9 13 25 21 26 21 19 16 10 17 2
31 29 33 39 39 38 33 32 31 29 29 30 11 21 24 33 9 16 22 35 45 40 42 42 13 17 28 18 11 21 24 29 38 38 21 19 9 13 19 18 24 19 14 10 10 10 6
33 32 32 31 29 29 28 28 24 22 25 23 10 7 23 38 38 26 25 25 27 45 39 45 29 16 17 23 16 13 23 13 24 25 36 25 9 7 8 8 11 9 15 15 16 9 3
42 34 29 28 26 28 28 27 23 19 20 19 7 8 14 6 20 26 30 27 36 32 33 44 18 15 19 21 26 20 11 14 9 15 4 6 6 5 22 19 10 14 12 20 16 9 9
40 43 38 23 23 25 28 28 31 20 17 15 10 15 23 39 46 34 28 29 35 41 28 26 18 22 28 25 26 28 18 12 13 9 15 4 4 7 7 15 27 31 7 6 22 24 20
35 39 39 33 19 21 23 27 28 20 11 6 18 22 20 23 18 22 14 28 35 39 52 44 35 32 36 32 50 56 51 22 18 19 16 13 11 8 6 13 15 9 18 10 25 29 40
32 36 38 40 20 21 23 26 31 27 21 16 15 22 15 14 20 28 43 56 45 51 38 45 58 22 38 34 56 59 59 41 32 16 23 15 10 5 7 4 9 12 18 34 25 29 20
28 31 35 39 37 27 31 31 31 32 28 23 10 8 12 14 33 33 48 35 59 73 35 25 29 24 48 39 10 18 19 12 16 22 19 19 11 5 9 6 22 26 18 9 14 21 34
29 29 32 35 38 37 35 30 32 32 29 25 15 5 14 18 13 38 29 27 10 23 24 21 32 32 35 6 9 10 9 11 12 17 20 18 14 11 4 27 12 10 13 38 27 10 36
31 30 31 32 36 39 37 33 28 28 26 24 2 7 7 21 45 27 9 9 9 21 11 15 25 25 22 5 15 9 11 10 12 21 13 16 8 16 7 9 6 11 4 22 17 10 35
32 32 32 32 33 37 38 37 30 28 26 21 5 4 17 28 58 62 34 21 15 21 6 14 11 16 19 12 2 4 7 7 9 18 19 14 10 6 10 9 4 8 7 14 18 31 38
32 33 33 34 33 33 37 41 34 30 23 21 15 13 14 24 38 41 41 48 53 62 29 4 6 10 20 7 7 6 7 10 14 7 10 10 9 12 5 11 20 28 30 23 31 37 53
Wind_Direction_850mb
21 19 16 14 13 10 8 6 1 360 359 357 353 348 344 341 339 336 331 322 309 291 289 292 296 291 283 273 246 268 271 240 245 247 263 282 285 299 16 122 121 147 119 126 128 131 137
19 17 14 12 9 7 5 2 358 354 352 352 352 346 342 339 336 335 331 322 308 286 279 287 294 289 279 256 172 278 284 223 230 244 264 277 284 327 314 333 134 130 146 159 131 144 123
12 10 9 7 7 5 3 0 356 352 348 346 347 346 341 337 333 331 327 320 308 283 271 279 290 286 260 227 168 157 298 239 232 236 262 287 309 328 321 305 129 178 182 154 156 132 126
4 6 4 1 1 1 1 358 355 350 347 343 342 342 337 334 331 328 323 315 306 280 266 275 285 298 261 233 250 232 206 246 233 250 263 283 313 315 304 297 163 242 138 172 132 120 166
353 355 357 355 353 354 356 356 354 350 346 342 339 338 335 331 329 326 318 309 300 276 257 262 286 300 269 249 235 224 220 240 238 244 255 271 288 292 294 301 318 254 195 197 169 155 146
346 343 343 347 351 348 349 350 350 348 346 341 336 334 331 329 326 323 315 300 288 271 247 252 230 296 252 228 227 236 219 222 236 234 235 248 262 250 272 263 245 223 315 258 218 173 160
339 339 338 338 339 344 343 345 346 346 343 341 336 331 326 326 324 320 312 293 338 234 221 217 227 226 290 232 211 224 209 216 236 256 218 240 230 237 257 257 285 238 187 225 239 174 163
330 333 335 337 334 334 337 339 341 342 341 340 337 330 323 322 320 314 304 265 257 333 293 276 258 254 268 273 257 209 200 208 223 242 216 250 239 248 262 273 188 235 217 252 166 154 151
320 324 328 330 330 331 329 331 334 337 337 337 336 330 323 320 318 312 302 285 301 334 296 281 242 244 243 255 243 203 206 206 204 239 243 223 244 242 249 258 253 269 223 156 185 145 257
319 321 323 326 323 328 331 327 329 331 333 333 332 330 328 321 310 303 308 341 330 313 299 256 197 230 233 232 277 216 210 226 229 217 243 234 243 257 261 234 248 252 106 35 223 142 211
311 313 314 322 324 327 331 328 326 326 328 328 328 326 328 318 295 274 333 358 325 283 288 189 176 191 191 203 208 222 222 215 227 237 188 247 246 242 259 252 245 199 45 262 286 226 351
308 311 313 317 320 324 327 325 321 320 322 321 321 320 314 307 286 309 266 326 315 290 250 160 135 147 169 207 236 242 213 216 230 246 259 234 246 240 242 262 228 238 70 286 308 20 341
298 302 307 311 317 323 326 325 318 315 317 315 313 312 300 282 265 293 274 280 247 237 309 131 165 170 193 188 225 232 213 196 209 213 254 271 251 260 256 227 255 62 28 315 334 348 227
305 296 305 309 314 318 322 323 320 315 315 313 310 308 290 270 238 202 322 272 249 256 243 298 196 163 192 197 221 238 202 199 203 234 215 239 273 245 264 226 190 178 188 176 234 201 229
311 295 302 298 310 316 319 320 320 315 317 313 313 310 291 256 208 188 231 230 222 233 305 317 305 173 188 220 194 217 228 202 201 215 226 213 249 264 240 193 211 240 283 229 274 310 49
331 313 292 300 301 311 315 318 318 317 319 317 319 316 272 195 178 172 221 240 253 273 301 308 302 173 178 206 212 193 212 196 213 221 228 256 309 240 256 197 239 167 230 320 321 243 62
331 319 304 302 307 312 316 322 321 320 322 314 325 318 116 167 193 194 227 243 267 267 274 278 298 338 266 189 214 218 222 189 200 223 218 242 197 276 247 181 181 221 248 255 199 174 146
301 298 297 296 301 307 316 320 324 326 325 316 301 261 176 179 176 210 236 244 259 279 285 287 278 307 303 306 211 216 225 207 201 206 213 216 203 240 238 190 210 207 206 194 140 290 40
331 324 310 309 314 315 324 326 330 333 336 346 313 278 192 187 224 236 244 248 260 271 275 283 267 268 289 300 334 205 223 227 216 194 209 204 245 265 293 243 235 212 209 232 122 82 28
334 327 326 328 330 328 335 332 335 329 324 338 307 271 198 205 240 266 273 273 258 255 270 279 288 282 322 310 294 286 210 238 232 179 206 179 219 162 224 109 8 326 185 112 116 92 141
3 348 340 339 347 344 347 346 337 324 317 330 236 274 356 256 227 238 262 280 282 277 257 271 296 300 295 298 309 302 220 221 201 157 20 122 181 135 86 85 68 327 341 107 104 147 105
356 4 354 345 356 356 354 349 343 325 318 301 287 346 327 293 279 279 238 246 265 280 263 255 240 261 265 268 268 282 296 196 210 154 171 149 228 135 118 131 112 256 271 238 125 130 114
342 353 357 351 342 347 347 342 341 334 345 320 318 311 334 284 298 294 228 232 247 263 273 228 236 224 243 250 254 268 276 222 222 159 172 175 159 157 221 192 207 221 229 205 117 138 145
343 342 349 356 327 318 319 323 330 341 346 323 321 327 293 295 316 318 338 345 331 296 260 275 228 207 240 294 282 259 273 262 222 179 163 174 192 177 195 77 181 318 16 99 92 137 164
337 342 338 346 350 325 307 311 314 325 326 307 312 319 303 302 322 334 351 336 335 340 261 268 292 299 310 315 278 250 263 261 230 170 185 170 179 227 114 290 89 327 358 35 98 109 143
335 332 336 337 345 345 340 313 311 318 317 302 300 207 274 297 247 333 333 343 339 339 340 2 342 309 301 275 271 231 245 223 223 161 184 186 184 147 358 161 169 162 316 72 101 80 126
325 330 331 336 335 337 343 338 320 318 316 310 325 198 294 288 277 284 279 276 311 317 306 309 335 320 282 276 281 255 256 252 181 164 179 195 222 199 181 87 100 134 288 74 81 194 129
318 321 323 325 330 331 333 339 326 317 315 310 199 149 304 287 280 273 255 271 284 302 297 298 328 9 297 215 231 338 342 304 213 172 176 169 140 177 100 97 176 181 44 106 184 138 119
319 316 315 317 321 324 326 329 332 327 314 300 260 207 279 262 262 276 270 256 238 236 264 319 10 334 265 326 46 49 22 4 11 195 341 152 168 142 112 175 129 162 157 172 161 121 130